Location: Kermapucano
(48.0667°N, 3.3000°W)
Time: 20:44:13
(UTC+00:00)

Genesis I - Pass Details

Date: 29 November 2020
Orbit: 493 x 528 km, 64.5° (Epoch: 27 January)

Event Time Altitude Azimuth Distance (km) Brightness Sun altitude
Exits shadow 06:59:31 - 252° (WSW) 2,488 6.2 -6.8°
Reaches altitude 10° 07:01:42 10° 265° (W) 1,708 5.3 -6.5°
Maximum altitude 07:04:53 25° 322° (NW) 1,057 4.3 -6.0°
Drops below altitude 10° 07:08:08 10° 19° (NNE) 1,733 5.8 -5.5°
Sets 07:10:37 0° 33° (NNE) 2,629 6.9 -5.1°
